Location: Harbor Hills
(33.7803°N, 118.3148°W)
Time: 06:50:53
(UTC+00:00)

Cosmos 2221 Rocket - Pass Details

Date: 05 August 2024
Orbit: 617 x 644 km, 82.5° (Epoch: 14 September)

Event Time Altitude Azimuth Distance (km) Brightness Sun altitude
Rises 12:31:57 0° 355° (N) 2,959 7.3 -7.8°
Reaches altitude 10° 12:34:13 10° 356° (N) 2,047 6.5 -7.4°
Maximum altitude 12:38:46 78° 82° (E) 662 3.9 -6.5°
Drops below altitude 10° 12:43:17 10° 170° (S) 2,030 6.1 -5.7°
Sets 12:45:31 0° 172° (S) 2,933 6.9 -5.3°
